DMSP 5D-3 F16 (USA 172) 1 28054U 03048A 26063.61843098 .00000199 00000+0 12739-3 0 9993 2 28054 98.9997 86.7073 0008201 85.2534 351.1424 14.14459818154703 METEOSAT-9 (MSG-2) 1 28912U 05049B 26063.09473407 .00000115 00000+0 00000+0 0 9996 2 28912 9.1243 55.1851 0001795 221.3911 325.1022 1.00277093 5941 DMSP 5D-3 F17 (USA 191) 1 29522U 06050A 26063.58668888 .00000224 00000+0 13800-3 0 9997 2 29522 98.7412 72.2856 0010046 1.6071 358.5133 14.14961262997626 FENGYUN 3A 1 32958U 08026A 26063.44887039 .00000166 00000+0 99150-4 0 9993 2 32958 98.6792 6.2962 0009799 71.7613 288.4629 14.19544519920546 GOES 14 1 35491U 09033A 26063.49975420 .00000117 00000+0 00000+0 0 9991 2 35491 1.4192 84.4208 0002260 298.7445 160.7749 1.00124429 5547 DMSP 5D-3 F18 (USA 210) 1 35951U 09057A 26063.54987373 .00000340 00000+0 19920-3 0 9997 2 35951 98.8956 44.5967 0010838 182.8858 177.2254 14.14832058844791 EWS-G2 (GOES 15) 1 36411U 10008A 26063.50649193 .00000010 00000+0 00000+0 0 9997 2 36411 1.0093 85.1478 0001906 19.7381 303.1848 1.00269460 58589 COMS 1 1 36744U 10032A 26063.60449630 -.00000353 00000+0 00000+0 0 9999 2 36744 4.5363 76.8665 0001197 283.4708 147.8028 1.00272313 50043 FENGYUN 3B 1 37214U 10059A 26063.64646795 .00000097 00000+0 73738-4 0 9993 2 37214 98.9775 109.1520 0023001 121.7796 335.9092 14.14815546792649 SUOMI NPP 1 37849U 11061A 26063.59784360 .00000128 00000+0 81858-4 0 9993 2 37849 98.7865 5.2411 0000409 280.5386 79.5744 14.19541848743605 METEOSAT-10 (MSG-3) 1 38552U 12035B 26063.38239013 -.00000013 00000+0 00000+0 0 9993 2 38552 4.4237 61.4637 0002497 294.9203 303.6900 1.00277420 49808 METOP-B 1 38771U 12049A 26063.58805672 .00000166 00000+0 95807-4 0 9995 2 38771 98.6652 117.1081 0001208 294.0201 66.0850 14.21442767698402 INSAT-3D 1 39216U 13038B 26063.58794773 -.00000349 00000+0 00000+0 0 9998 2 39216 1.6560 83.9118 0001758 242.6222 176.9436 1.00273372 46036 FENGYUN 3C 1 39260U 13052A 26063.65792162 .00000149 00000+0 96999-4 0 9995 2 39260 98.4883 42.3895 0014064 328.4024 31.6305 14.15727052643770 METEOR-M 2 1 40069U 14037A 26063.61516723 .00000122 00000+0 74841-4 0 9994 2 40069 98.5014 43.1132 0005678 352.8889 7.2207 14.21426112604463 HIMAWARI-8 1 40267U 14060A 26063.58768699 -.00000287 00000+0 00000+0 0 9991 2 40267 0.0312 247.5940 0000766 82.9448 184.0089 1.00271913 41719 FENGYUN 2G 1 40367U 14090A 26063.51997462 -.00000311 00000+0 00000+0 0 9998 2 40367 5.3743 74.0854 0001863 152.9569 222.0917 1.00274479 40952 METEOSAT-11 (MSG-4) 1 40732U 15034A 26063.37683795 .00000051 00000+0 00000+0 0 9998 2 40732 2.9374 71.6812 0001803 270.6417 324.8599 1.00266090 6164 ELEKTRO-L 2 1 41105U 15074A 26062.86880331 -.00000128 00000+0 00000+0 0 9991 2 41105 6.4296 71.8188 0003467 237.1165 150.9510 1.00270829 37457 INSAT-3DR 1 41752U 16054A 26063.62512220 -.00000088 00000+0 00000+0 0 9997 2 41752 0.0478 96.4704 0013224 185.3950 179.5257 1.00272451 34772 HIMAWARI-9 1 41836U 16064A 26063.56433706 -.00000286 00000+0 00000+0 0 9995 2 41836 0.0143 179.2435 0001186 190.2974 136.7047 1.00272269 34162 GOES 16 1 41866U 16071A 26063.35669706 -.00000102 00000+0 00000+0 0 9991 2 41866 0.1377 89.7852 0002555 217.0177 239.0082 1.00271047 34054 FENGYUN 4A 1 41882U 16077A 26063.13308794 -.00000369 00000+0 00000+0 0 9993 2 41882 2.0552 81.4150 0007464 135.8137 116.1229 1.00279325 33879 CYGFM05 1 41884U 16078A 26063.55453097 .00034004 00000+0 54797-3 0 9997 2 41884 34.9567 231.0511 0007061 241.0281 118.9734 15.51875455512463 CYGFM04 1 41885U 16078B 26063.55083940 .00038215 00000+0 54394-3 0 9995 2 41885 34.9330 203.3310 0006120 275.3846 84.6180 15.55266754512669 CYGFM02 1 41886U 16078C 26063.58769563 .00105694 00000+0 13695-2 0 9995 2 41886 34.9411 200.0974 0007082 277.0728 82.9190 15.57532132512813 CYGFM01 1 41887U 16078D 26063.58316739 .00034156 00000+0 54183-3 0 9991 2 41887 34.9397 232.6774 0006735 234.1184 125.8913 15.52312229512414 CYGFM08 1 41888U 16078E 26063.50389724 .00038958 00000+0 58503-3 0 9992 2 41888 34.9432 215.1277 0008187 257.7536 102.2270 15.53788064512649 CYGFM07 1 41890U 16078G 26063.60121598 .00036085 00000+0 52875-3 0 9994 2 41890 34.9455 202.9662 0006664 278.9406 81.0563 15.54484346512688 CYGFM03 1 41891U 16078H 26063.57232184 .00037252 00000+0 54555-3 0 9999 2 41891 34.9407 205.1346 0005979 263.8461 96.1581 15.54499334512659 FENGYUN 3D 1 43010U 17072A 26063.63235396 -.00000046 00000+0 87425-7 0 9992 2 43010 99.0017 36.2251 0001832 23.5964 336.5295 14.19712214430156 NOAA 20 (JPSS-1) 1 43013U 17073A 26063.54200331 .00000101 00000+0 68982-4 0 9992 2 43013 98.7687 3.9805 0000976 144.4813 215.6429 14.19534477429627 GOES 17 1 43226U 18022A 26063.35114212 -.00000194 00000+0 00000+0 0 9999 2 43226 0.6680 87.5564 0002253 221.5500 249.8945 1.00270359 29370 FENGYUN 2H 1 43491U 18050A 26063.67740244 -.00000136 00000+0 00000+0 0 9995 2 43491 2.7614 80.3546 0001895 174.9360 230.0620 1.00272622 28399 METOP-C 1 43689U 18087A 26063.61262545 .00000178 00000+0 10128-3 0 9992 2 43689 98.6776 125.0716 0002182 106.9684 253.1733 14.21495144379978 GEO-KOMPSAT-2A 1 43823U 18100A 26063.26502859 .00000000 00000+0 00000+0 0 9992 2 43823 0.0084 82.1864 0001750 326.5345 336.9688 1.00267019 26573 METEOR-M2 2 1 44387U 19038A 26063.57672799 .00000337 00000+0 16578-3 0 9998 2 44387 98.9074 49.3574 0001155 13.0798 347.0410 14.24332010346403 ARKTIKA-M 1 1 47719U 21016A 26061.82287547 -.00000108 00000+0 00000+0 0 9994 2 47719 63.2036 72.8571 7242814 269.4536 15.2019 2.00620868 36653 FENGYUN 3E 1 49008U 21062A 26063.62839678 .00000265 00000+0 14572-3 0 9992 2 49008 98.7505 68.1982 0002411 51.7930 308.3463 14.19893822241746 GOES 18 1 51850U 22021A 26063.49975577 .00000085 00000+0 00000+0 0 9997 2 51850 0.0304 75.7612 0000657 323.5131 165.8689 1.00272095 5545 NOAA 21 (JPSS-2) 1 54234U 22150A 26063.57676800 .00000115 00000+0 75550-4 0 9996 2 54234 98.7550 3.9014 0002544 115.6250 244.5189 14.19550502171707 METEOSAT-12 (MTG-I1) 1 54743U 22170C 26063.38239013 -.00000019 00000+0 00000+0 0 9990 2 54743 0.7009 21.3486 0002149 285.0111 353.1353 1.00269482 11927 TIANMU-1 03 1 55973U 23039A 26063.63016222 .00023955 00000+0 52699-3 0 9992 2 55973 97.5168 233.7788 0003975 115.7871 244.3787 15.43973312164687 TIANMU-1 04 1 55974U 23039B 26063.65495981 .00023271 00000+0 50499-3 0 9995 2 55974 97.5101 232.9658 0004633 112.1005 248.0735 15.44381361164697 TIANMU-1 05 1 55975U 23039C 26063.60655406 .00023314 00000+0 51403-3 0 9995 2 55975 97.5146 233.4075 0003764 133.3427 226.8135 15.43913728164665 TIANMU-1 06 1 55976U 23039D 26063.65485984 .00023138 00000+0 50169-3 0 9995 2 55976 97.5158 233.9931 0004043 128.7535 231.4074 15.44410829164696 FENGYUN 3G 1 56232U 23055A 26063.61943909 .00044817 00000+0 67499-3 0 9992 2 56232 49.9933 165.1802 0010723 350.4524 9.6238 15.54245537163757 METEOR-M2 3 1 57166U 23091A 26063.61815050 .00000005 00000+0 21092-4 0 9995 2 57166 98.6225 120.6735 0005040 110.7757 249.3963 14.24036989139634 TIANMU-1 07 1 57399U 23101A 26063.61133762 .00011038 00000+0 39322-3 0 9990 2 57399 97.2733 116.6733 0004495 147.8564 212.2951 15.29086596145665 TIANMU-1 08 1 57400U 23101B 26063.25411663 .00000535 00000+0 21426-4 0 9999 2 57400 97.2723 116.1026 0006552 141.1444 219.0268 15.29240160145606 TIANMU-1 09 1 57401U 23101C 26063.62806447 .00000806 00000+0 30958-4 0 9990 2 57401 97.2685 115.9472 0005343 146.4188 213.7392 15.29231481145667 TIANMU-1 10 1 57402U 23101D 26063.59718264 .00010706 00000+0 37961-3 0 9996 2 57402 97.2758 116.8538 0007006 146.9639 213.2040 15.29234858145651 FENGYUN 3F 1 57490U 23111A 26063.61441179 .00000107 00000+0 70920-4 0 9992 2 57490 98.6938 135.5339 0001321 82.0899 278.0428 14.19918116134024 ARKTIKA-M 2 1 58584U 23198A 26062.08261615 .00000137 00000+0 00000+0 0 9997 2 58584 63.2203 166.1216 6876963 267.7841 18.8417 2.00614888 16194 TIANMU-1 11 1 58645U 23205A 26063.62529907 .00009252 00000+0 36426-3 0 9998 2 58645 97.3546 86.8580 0009615 25.4961 334.6750 15.25798627121573 TIANMU-1 12 1 58646U 23205B 26063.59188910 .00009352 00000+0 36920-3 0 9990 2 58646 97.3534 86.6054 0007386 12.3961 347.7457 15.25721591121556 TIANMU-1 13 1 58647U 23205C 26063.62295179 .00009536 00000+0 37587-3 0 9995 2 58647 97.3562 86.8726 0007018 353.0798 7.0342 15.25771001121551 TIANMU-1 14 1 58648U 23205D 26063.60744513 .00010021 00000+0 39499-3 0 9990 2 58648 97.3496 86.1308 0007942 356.3400 3.7779 15.25748648121557 TIANMU-1 19 1 58660U 23208A 26063.62780686 .00013591 00000+0 47446-3 0 9996 2 58660 97.4389 179.6104 0004245 338.8835 21.2229 15.29704900121333 TIANMU-1 20 1 58661U 23208B 26063.61605061 .00013764 00000+0 46303-3 0 9992 2 58661 97.4328 180.1271 0006575 345.0757 15.0289 15.30893982121417 TIANMU-1 21 1 58662U 23208C 26063.62118787 .00015983 00000+0 50494-3 0 9999 2 58662 97.4382 182.3876 0006340 338.4538 21.6437 15.32884514121530 TIANMU-1 22 1 58663U 23208D 26063.57876328 .00013546 00000+0 47838-3 0 9997 2 58663 97.4383 179.5755 0003528 12.6062 347.5266 15.29330644121338 TIANMU-1 15 1 58700U 24004A 26063.67078589 .00009567 00000+0 37742-3 0 9999 2 58700 97.4661 249.9162 0007080 7.7118 352.4227 15.25744966119833 TIANMU-1 16 1 58701U 24004B 26063.65438244 .00010186 00000+0 40132-3 0 9992 2 58701 97.4602 249.2265 0005617 13.7054 346.4335 15.25778661119838 TIANMU-1 17 1 58702U 24004C 26063.63683236 .00010389 00000+0 40881-3 0 9990 2 58702 97.4635 249.6603 0004859 17.3436 342.7967 15.25816174119827 TIANMU-1 18 1 58703U 24004D 26063.62182926 .00009677 00000+0 38164-3 0 9999 2 58703 97.4652 249.8559 0004263 18.5306 341.6086 15.25765195119823 INSAT-3DS 1 58990U 24033A 26063.65638222 -.00000166 00000+0 00000+0 0 9996 2 58990 0.0552 263.6074 0002324 95.0438 122.1033 1.00270314 46025 METEOR-M2 4 1 59051U 24039A 26063.65480667 .00000025 00000+0 30944-4 0 9997 2 59051 98.6898 24.3337 0008087 108.8962 251.3093 14.22416116104409 GOES 19 1 60133U 24119A 26063.34003264 -.00000260 00000+0 00000+0 0 9996 2 60133 0.0165 326.7117 0000996 53.9137 188.6733 1.00271970 5914 FENGYUN 3H 1 65815U 25219A 26063.61070286 .00000115 00000+0 74698-4 0 9995 2 65815 98.6680 6.4642 0001397 65.0627 295.0695 14.19930989 22544